Weather History for Redmond, OR

Change the Weather History Date:

Thursday, January 23, 2014

  Actual Average Record
Temperature  
Mean Temperature 32 °F 34 °F  
Max Temperature 40 °F 43 °F 63 °F (1953)
Min Temperature 23 °F 24 °F -11 °F (1969)
Degree Days  
Heating Degree Days 33 31  
Month to date heating degree days 673 751  
Since 1 July heating degree days 3568 3591  
Cooling Degree Days 0 0  
Month to date cooling degree days 0 0  
Year to date cooling degree days 0 0  
Moisture  
Dew Point 23 °F    
Average Humidity 94    
Maximum Humidity 100    
Minimum Humidity 88    
Precipitation  
Precipitation T in 0.03 in 0.47 in (1970)
Month to date precipitation 0.26 0.76  
Year to date precipitation 0.26 0.76  
Sea Level Pressure  
Sea Level Pressure 30.49 in    
Wind  
Wind Speed 6 mph (NNW)    
Max Wind Speed 14 mph    
Max Gust Speed 15 mph    
Visibility 6 miles    
Events Snow    
T = Trace of Precipitation, MM = Missing Value Source: NWS Daily Summary

Daily Weather History Graph

Daily Weather History Graph

Search for Another Location

Airport:

Trip Planner

Search our weather history database for the weather conditions in past years. The results will help you decide how hot, cold, wet, or windy it might be!

Date:

Astronomy

Jan. 23, 2014 Rise Set
Actual Time 7:31 AM PST 5:02 PM PST
Civil Twilight 6:59 AM PST 5:33 PM PST
Nautical Twilight 6:24 AM PST 6:09 PM PST
Astronomical Twilight 5:50 AM PST 6:43 PM PST
Moon No Moon Rise 10:52 AM PST (1/23)
Length of Visible Light 10h 34m
Length of Day
9h 30m
Waning Gibbous, 54% of the Moon is Illuminated
Jan 23
Waning Gibbous
Jan 23
Last Quarter
Jan 30
New
Feb 6
First Quarter
Feb 14
Full

Hourly Weather History & Observations

Time (PST) Temp. Windchill Dew Point Humidity Pressure Visibility Wind Dir Wind Speed Gust Speed Precip Events Conditions
12:56 AM 27.0 °F 23.0 °F 26.1 °F 96% 30.41 in 1.0 mi North 3.5 mph - N/A   Mist
1:20 AM 27.0 °F 19.5 °F 26.1 °F 96% 30.36 in 0.8 mi NW 6.9 mph - N/A   Mist
1:56 AM 27.0 °F 20.5 °F 25.0 °F 92% 30.43 in 1.2 mi NNW 5.8 mph - N/A   Overcast
2:22 AM 27.0 °F 18.7 °F 25.0 °F 92% 30.39 in 3.0 mi NW 8.1 mph - N/A   Overcast
2:54 AM 26.6 °F 19.1 °F 24.8 °F 93% 30.38 in 10.0 mi NW 6.9 mph - N/A   Overcast
2:56 AM 26.1 °F 18.4 °F 24.1 °F 92% 30.43 in 10.0 mi NW 6.9 mph - N/A   Overcast
3:56 AM 26.1 °F 16.8 °F 24.1 °F 92% 30.44 in 10.0 mi NNW 9.2 mph - N/A   Overcast
4:48 AM 25.0 °F 15.5 °F 23.0 °F 92% 30.40 in 9.0 mi NW 9.2 mph - N/A   Overcast
4:56 AM 25.0 °F 17.1 °F 23.0 °F 92% 30.47 in 8.0 mi NNW 6.9 mph - N/A   Overcast
5:56 AM 24.1 °F 13.7 °F 23.0 °F 96% 30.49 in 4.0 mi NNW 10.4 mph - N/A   Overcast
6:06 AM 24.1 °F 13.7 °F 23.0 °F 96% 30.41 in 1.8 mi NNW 10.4 mph - N/A   Overcast
6:17 AM 24.1 °F 14.4 °F 23.0 °F 96% 30.42 in 2.0 mi NNW 9.2 mph - N/A   Overcast
6:56 AM 24.1 °F 14.4 °F 21.9 °F 91% 30.51 in 2.5 mi NNW 9.2 mph - N/A   Overcast
7:56 AM 24.1 °F 18.2 °F 21.9 °F 91% 30.52 in 1.0 mi WNW 4.6 mph - N/A   Overcast
8:32 AM 24.1 °F 18.2 °F 21.9 °F 91% 30.44 in 1.0 mi WNW 4.6 mph - N/A   Overcast
8:43 AM 24.1 °F 19.7 °F 21.9 °F 91% 30.44 in 2.5 mi WNW 3.5 mph - N/A   Overcast
8:56 AM 24.1 °F 18.2 °F 21.9 °F 91% 30.53 in 2.5 mi NNW 4.6 mph - N/A   Overcast
9:56 AM 24.1 °F 18.2 °F 21.9 °F 91% 30.56 in 10.0 mi NW 4.6 mph - N/A   Overcast
10:56 AM 25.0 °F 19.3 °F 21.9 °F 88% 30.56 in 10.0 mi NW 4.6 mph - N/A   Overcast
11:56 AM 25.0 °F 20.7 °F 23.0 °F 92% 30.55 in 10.0 mi NW 3.5 mph - N/A   Overcast
12:56 PM 25.0 °F 20.7 °F 23.0 °F 92% 30.54 in 10.0 mi NNW 3.5 mph - N/A   Overcast
1:56 PM 26.1 °F 18.4 °F 23.0 °F 88% 30.52 in 3.0 mi North 6.9 mph - 0.00 in Snow Light Snow
2:46 PM 25.0 °F 19.3 °F 24.1 °F 96% 30.42 in 9.0 mi NNW 4.6 mph - 0.00 in   Overcast
2:56 PM 26.1 °F 17.6 °F 24.1 °F 92% 30.51 in 9.0 mi NW 8.1 mph - 0.00 in   Overcast
3:56 PM 25.0 °F 16.3 °F 23.0 °F 92% 30.51 in 3.0 mi NW 8.1 mph - N/A   Overcast
4:56 PM 25.0 °F 17.1 °F 23.0 °F 92% 30.53 in 3.0 mi NNW 6.9 mph - N/A   Overcast
5:56 PM 25.0 °F 16.3 °F 23.0 °F 92% 30.54 in 3.0 mi NNW 8.1 mph - N/A   Overcast
6:56 PM 24.1 °F 19.7 °F 23.0 °F 96% 30.56 in 8.0 mi Variable 3.5 mph - N/A   Overcast
7:56 PM 24.1 °F 17.0 °F 23.0 °F 96% 30.57 in 2.5 mi North 5.8 mph - N/A   Overcast
8:06 PM 24.1 °F 19.7 °F 21.9 °F 91% 30.47 in 4.0 mi NNW 3.5 mph - N/A   Overcast
8:37 PM 24.1 °F 17.0 °F 23.0 °F 96% 30.48 in 2.5 mi NNW 5.8 mph - N/A   Overcast
8:44 PM 24.1 °F 18.2 °F 23.0 °F 96% 30.49 in 4.0 mi WNW 4.6 mph - N/A   Overcast
8:56 PM 24.1 °F 18.2 °F 23.0 °F 96% 30.59 in 8.0 mi NNW 4.6 mph - N/A   Overcast
9:42 PM 24.1 °F 18.2 °F 21.9 °F 91% 30.50 in 10.0 mi NNW 4.6 mph - N/A   Overcast
9:53 PM 24.8 °F 19.1 °F 21.2 °F 86% 30.50 in 10.0 mi North 4.6 mph - N/A   Overcast
9:56 PM 24.1 °F - 21.9 °F 91% 30.60 in 10.0 mi Calm Calm - N/A   Overcast
10:56 PM 24.1 °F 19.7 °F 21.9 °F 91% 30.61 in 10.0 mi NE 3.5 mph - N/A   Overcast
11:56 PM 24.1 °F 19.7 °F 21.9 °F 91% 30.62 in 8.0 mi West 3.5 mph - N/A   Overcast